Location: Terra Rouge Observatory
(46.0000°N, 62.7500°W)
Time: 12:00:22
(UTC-03:00)

Amateur Radio Satellites - All Passes

Search period start: 31 October 2014 11:30
Search period end: 01 November 2014 11:30
Location: Terra Rouge Observatory, 46.0000°N, 62.7500°W

Satellite Date Start Highest point End Downlink Frequencies (MHz)
Time Altitude Azimuth
SO-50 31 Oct 11:35:25 11:39:42 45° 119° (ESE) 11:44:08 436.795 FM
FUNcube-1 31 Oct 11:42:15 11:46:29 89° 284° (WNW) 11:50:38 145.950 - 145.970 MHz USB
ISS 31 Oct 11:43:14 11:46:33 86° 333° (NNW) 11:49:54 145.800 FM
KITSAT 1 31 Oct 11:45:00 11:53:03 79° 121° (ESE) 12:01:09 435.175 FM
JAS-1B 31 Oct 11:56:59 11:58:59 12° 49° (NE) 12:01:01 435.800 - 435.900 CW/SSB
Oscar 19 31 Oct 12:06:35 12:08:43 13° 55° (NE) 12:10:50 437.125 CW, 437.150 USB
Sapphire 31 Oct 12:11:18 12:16:43 68° 242° (WSW) 12:22:05 437.095 MHz 1200 baud AX-25 AFSK
HO-68 31 Oct 12:21:41 12:27:00 23° 307° (NW) 12:32:18 435.675 MHz FM
UOSAT-12 31 Oct 12:22:17 12:24:52 15° 109° (ESE) 12:27:29 437.025 FM, 437.400 FM
UKube-1 31 Oct 12:28:07 12:30:52 17° 299° (WNW) 12:33:36 145.840 MHz, 145.915 MHz
PCSat 31 Oct 12:33:14 12:38:20 42° 246° (WSW) 12:43:23 145.825 MHz
ZACube-1 31 Oct 12:36:11 12:39:40 25° 294° (WNW) 12:43:06 437.345 MHz
AO-27 31 Oct 12:42:46 12:44:40 12° 54° (NE) 12:46:35 436.795 MHz FM
Oscar 16 31 Oct 12:50:49 12:55:13 29° 64° (ENE) 12:59:38 437.025 USB, Beacon 2401.1428
Saudisat 1A 31 Oct 12:54:22 12:56:53 15° 30° (NNE) 12:59:23 436.775 MHz
SO-50 31 Oct 13:16:25 13:20:26 30° 319° (NW) 13:24:34 436.795 FM
ISS 31 Oct 13:20:31 13:23:33 32° 352° (N) 13:26:37 145.800 FM
AO-7 31 Oct 13:20:58 13:22:08 10° 32° (NNE) 13:23:19 29.400 - 29.500 MHz
FUNcube-1 31 Oct 13:21:25 13:22:09 10° 302° (WNW) 13:22:54 145.950 - 145.970 MHz USB
Uribyol 2 31 Oct 13:23:40 13:27:58 27° 63° (ENE) 13:32:16 436.500 FM
AO-Echo 31 Oct 13:26:45 13:31:10 32° 65° (ENE) 13:35:43 ?
ITAMSAT 1 31 Oct 13:31:25 13:35:51 29° 64° (ENE) 13:40:18 435.822 SSB
KITSAT 1 31 Oct 13:42:05 13:49:17 34° 324° (NW) 13:56:31 435.175 FM
Oscar 19 31 Oct 13:42:05 13:47:13 78° 74° (ENE) 13:52:22 437.125 CW, 437.150 USB
JAS-1B 31 Oct 13:42:53 13:48:34 72° 72° (ENE) 13:54:20 435.800 - 435.900 CW/SSB
UOSAT-12 31 Oct 13:59:44 14:04:23 79° 307° (NW) 14:09:09 437.025 FM, 437.400 FM
AO-27 31 Oct 14:18:04 14:23:15 72° 73° (ENE) 14:28:30 436.795 MHz FM
Oscar 16 31 Oct 14:29:36 14:34:26 40° 262° (W) 14:39:17 437.025 USB, Beacon 2401.1428
Saudisat 1A 31 Oct 14:32:53 14:37:18 64° 51° (NE) 14:41:42 436.775 MHz
Gurwin Techsat 1B 31 Oct 14:33:10 14:38:18 53° 70° (ENE) 14:43:29 435.225 FM
TMSAT-1 31 Oct 14:39:43 14:44:45 46° 68° (ENE) 14:49:48 436.925 FM
ISS 31 Oct 14:57:41 15:00:48 35° 12° (NNE) 15:03:55 145.800 FM
SO-50 31 Oct 15:02:05 15:02:33 10° 343° (NNW) 15:03:02 436.795 FM
Uribyol 2 31 Oct 15:02:10 15:07:11 47° 261° (W) 15:12:15 436.500 FM
AO-7 31 Oct 15:05:12 15:12:30 37° 56° (NE) 15:19:50 29.400 - 29.500 MHz
AO-Echo 31 Oct 15:05:13 15:09:50 37° 264° (W) 15:14:37 ?
ITAMSAT 1 31 Oct 15:10:14 15:15:10 42° 262° (W) 15:20:09 435.822 SSB
Uosat F 31 Oct 15:19:30 15:22:50 18° 59° (ENE) 15:26:10 435.120 FM
Oscar 19 31 Oct 15:24:23 15:27:09 15° 271° (W) 15:29:56 437.125 CW, 437.150 USB
JAS-1B 31 Oct 15:36:39 15:40:02 16° 272° (W) 15:43:26 435.800 - 435.900 CW/SSB
UOSAT-12 31 Oct 15:42:05 15:45:19 18° 328° (NNW) 15:48:34 437.025 FM, 437.400 FM
KITSAT 1 31 Oct 15:42:16 15:47:33 18° 353° (N) 15:52:51 435.175 FM
AO-27 31 Oct 16:00:05 16:03:19 16° 270° (W) 16:06:34 436.795 MHz FM
JAS-2 31 Oct 16:09:38 16:14:30 22° 54° (NE) 16:19:45 435.800 - 435.900 CW/SSB, 435.910 FM
Saudisat 1A 31 Oct 16:13:33 16:16:24 17° 249° (WSW) 16:19:15 436.775 MHz
Gurwin Techsat 1B 31 Oct 16:14:27 16:18:35 23° 268° (W) 16:22:45 435.225 FM
TMSAT-1 31 Oct 16:20:26 16:24:51 26° 266° (W) 16:29:18 436.925 FM
ISS 31 Oct 16:34:21 16:37:41 69° 211° (SSW) 16:41:00 145.800 FM
Uosat F 31 Oct 16:56:04 17:01:04 70° 257° (WSW) 17:06:08 435.120 FM
AO-7 31 Oct 16:56:46 17:04:55 61° 256° (WSW) 17:13:08 29.400 - 29.500 MHz
OPAL 31 Oct 17:24:25 17:27:00 14° 91° (E) 17:29:33 ?
KITSAT 1 31 Oct 17:40:10 17:46:24 23° 23° (NNE) 17:52:36 435.175 FM
JAS-2 31 Oct 17:52:10 17:58:33 86° 256° (WSW) 18:05:51 435.800 - 435.900 CW/SSB, 435.910 FM
Hamsat 31 Oct 18:05:21 18:09:32 86° 76° (ENE) 18:13:44 145.90 MHz
ISS 31 Oct 18:12:46 18:13:50 11° 228° (SW) 18:14:54 145.800 FM
SO-50 31 Oct 18:24:33 18:28:00 19° 33° (NNE) 18:31:28 436.795 FM
SO-67 31 Oct 18:52:01 18:55:08 32° 71° (ENE) 18:58:15 435.3500 MHz FM
AO-7 31 Oct 18:56:57 18:59:26 11° 277° (W) 19:01:56 29.400 - 29.500 MHz
OPAL 31 Oct 19:01:30 19:06:28 77° 289° (WNW) 19:11:24 ?
UOSAT-12 31 Oct 19:09:04 19:09:57 10° 18° (NNE) 19:10:49 437.025 FM, 437.400 FM
HO-68 31 Oct 19:19:03 19:23:56 20° 51° (NE) 19:28:48 435.675 MHz FM
STRAND 1 31 Oct 19:19:32 19:23:55 27° 94° (E) 19:28:15 ?
KITSAT 1 31 Oct 19:35:38 19:43:38 60° 49° (NE) 19:51:36 435.175 FM
JAS-2 31 Oct 19:41:00 19:44:51 16° 278° (W) 19:48:57 435.800 - 435.900 CW/SSB, 435.910 FM
AO-40 31 Oct 19:47:23 23:20:44 27° 131° (SE) 00:46:26 Beacon 2401.320
SO-50 31 Oct 20:04:25 20:09:17 83° 53° (NE) 20:14:11 436.795 FM
SO-67 31 Oct 20:25:59 20:28:12 16° 268° (W) 20:30:26 435.3500 MHz FM
OPAL 31 Oct 20:42:32 20:44:32 12° 308° (NW) 20:46:31 ?
RS-15 31 Oct 20:43:01 20:52:44 39° 108° (ESE) 21:02:23 29.354 - 29.394 USB, Beacon 29.352 USB
UOSAT-12 31 Oct 20:47:23 20:51:37 31° 41° (NE) 20:55:47 437.025 FM, 437.400 FM
Oscar 11 31 Oct 20:48:57 20:51:45 17° 62° (ENE) 20:54:32 145.825 FM, Beacon 2401.500 USB
STRAND 1 31 Oct 20:58:24 21:03:15 42° 292° (WNW) 21:08:03 ?
HO-68 31 Oct 21:03:27 21:10:37 83° 71° (ENE) 21:17:51 435.675 MHz FM
FUNcube-1 31 Oct 21:07:19 21:09:13 13° 59° (ENE) 21:11:07 145.950 - 145.970 MHz USB
KITSAT 1 31 Oct 21:31:30 21:38:43 38° 250° (WSW) 21:45:55 435.175 FM
SO-50 31 Oct 21:46:32 21:49:13 15° 251° (WSW) 21:51:55 436.795 FM
UKube-1 31 Oct 21:48:20 21:52:40 71° 73° (ENE) 21:57:03 145.840 MHz, 145.915 MHz
ZACube-1 31 Oct 21:58:05 22:02:14 37° 69° (ENE) 22:06:19 437.345 MHz
Oscar 10/S400 31 Oct 22:02:48 22:49:24 39° 210° (SSW) 04:30:53 145.825 - 145.975 CW/USB, Beacon 145.810 USB
Oscar 11 31 Oct 22:23:17 22:27:31 55° 260° (W) 22:31:47 145.825 FM, Beacon 2401.500 USB
UOSAT-12 31 Oct 22:27:25 22:31:56 45° 241° (WSW) 22:36:21 437.025 FM, 437.400 FM
FUNcube-1 31 Oct 22:40:27 22:44:59 84° 257° (WSW) 22:49:26 145.950 - 145.970 MHz USB
MaSat-1 31 Oct 22:50:54 22:54:44 87° 298° (WNW) 22:58:10 437.345 MHz
RS-15 31 Oct 22:53:28 23:04:23 69° 312° (NW) 23:15:22 29.354 - 29.394 USB, Beacon 29.352 USB
HO-68 31 Oct 22:54:03 22:59:09 21° 270° (W) 23:04:17 435.675 MHz FM
UKube-1 31 Oct 23:27:31 23:29:21 12° 271° (W) 23:31:12 145.840 MHz, 145.915 MHz
ZACube-1 31 Oct 23:35:01 23:38:43 24° 266° (W) 23:42:22 437.345 MHz
RS-15 01 Nov 01:09:37 01:19:07 32° 342° (NNW) 01:28:47 29.354 - 29.394 USB, Beacon 29.352 USB
JAS-1B 01 Nov 01:23:01 01:28:08 20° 91° (E) 01:33:47 435.800 - 435.900 CW/SSB
PCSat 01 Nov 01:36:01 01:39:26 17° 105° (ESE) 01:42:52 145.825 MHz
Oscar 19 01 Nov 01:51:51 01:55:51 23° 92° (E) 01:59:50 437.125 CW, 437.150 USB
AO-27 01 Nov 02:29:26 02:33:22 21° 92° (E) 02:37:15 436.795 MHz FM
Oscar 16 01 Nov 02:38:19 02:43:23 59° 101° (E) 02:48:26 437.025 USB, Beacon 2401.1428
Gurwin Techsat 1B 01 Nov 02:47:55 02:51:22 17° 90° (E) 02:54:48 435.225 FM
TMSAT-1 01 Nov 02:54:24 02:57:17 15° 88° (E) 03:00:10 436.925 FM
Sapphire 01 Nov 02:55:12 03:00:33 69° 119° (ESE) 03:05:58 437.095 MHz 1200 baud AX-25 AFSK
AO-Echo 01 Nov 03:09:16 03:14:34 63° 101° (E) 03:19:47 ?
Uribyol 2 01 Nov 03:12:10 03:17:16 51° 100° (E) 03:22:18 436.500 FM
JAS-1B 01 Nov 03:12:15 03:19:18 89° 286° (WNW) 03:27:47 435.800 - 435.900 CW/SSB
PCSat 01 Nov 03:16:47 03:22:12 78° 303° (WNW) 03:27:39 145.825 MHz
ITAMSAT 1 01 Nov 03:20:14 03:25:24 57° 101° (E) 03:30:30 435.822 SSB
RS-15 01 Nov 03:26:06 03:35:41 32° 17° (NNE) 03:45:30 29.354 - 29.394 USB, Beacon 29.352 USB
Oscar 19 01 Nov 03:30:31 03:35:28 50° 290° (WNW) 03:40:24 437.125 CW, 437.150 USB
AO-27 01 Nov 04:08:07 04:13:14 56° 290° (WNW) 04:18:19 436.795 MHz FM
Oscar 16 01 Nov 04:18:33 04:22:19 21° 299° (WNW) 04:26:05 437.025 USB, Beacon 2401.1428
Gurwin Techsat 1B 01 Nov 04:26:33 04:31:52 69° 287° (WNW) 04:37:08 435.225 FM
TMSAT-1 01 Nov 04:32:31 04:37:51 81° 286° (WNW) 04:43:09 436.925 FM
Sapphire 01 Nov 04:40:03 04:44:29 25° 319° (NW) 04:48:58 437.095 MHz 1200 baud AX-25 AFSK
OPAL 01 Nov 04:40:43 04:45:20 36° 64° (ENE) 04:49:55 ?
AO-Echo 01 Nov 04:48:55 04:52:52 22° 299° (WNW) 04:56:47 ?
Uribyol 2 01 Nov 04:52:18 04:56:25 24° 298° (WNW) 05:00:31 436.500 FM
AO-7 01 Nov 04:55:24 05:03:10 41° 98° (E) 05:10:54 29.400 - 29.500 MHz
JAS-2 01 Nov 05:00:22 05:05:03 17° 83° (E) 05:09:38 435.800 - 435.900 CW/SSB, 435.910 FM
ITAMSAT 1 01 Nov 05:00:31 05:04:29 22° 299° (WNW) 05:08:26 435.822 SSB
Uosat F 01 Nov 05:01:36 05:06:01 30° 95° (E) 05:10:24 435.120 FM
PCSat 01 Nov 05:02:46 05:06:31 19° 325° (NW) 05:10:18 145.825 MHz
JAS-1B 01 Nov 05:04:21 05:09:16 21° 303° (WNW) 05:14:46 435.800 - 435.900 CW/SSB
RS-15 01 Nov 05:39:26 05:50:32 68° 47° (NE) 06:02:04 29.354 - 29.394 USB, Beacon 29.352 USB
Hamsat 01 Nov 05:50:05 05:52:02 13° 89° (E) 05:53:59 145.90 MHz
Gurwin Techsat 1B 01 Nov 06:09:02 06:10:52 12° 307° (NW) 06:12:42 435.225 FM
TMSAT-1 01 Nov 06:14:25 06:16:56 14° 305° (NW) 06:19:26 436.925 FM
OPAL 01 Nov 06:19:40 06:24:14 32° 261° (W) 06:28:45 ?
Saudisat 1A 01 Nov 06:20:31 06:24:51 68° 123° (ESE) 06:29:15 436.775 MHz
STRAND 1 01 Nov 06:37:40 06:42:38 51° 69° (ENE) 06:47:37 ?
Uosat F 01 Nov 06:40:13 06:44:52 38° 293° (WNW) 06:49:29 435.120 FM
JAS-2 01 Nov 06:43:21 06:51:16 76° 103° (ESE) 06:58:56 435.800 - 435.900 CW/SSB, 435.910 FM
AO-7 01 Nov 06:48:09 06:56:08 53° 298° (WNW) 07:04:06 29.400 - 29.500 MHz
MaSat-1 01 Nov 06:58:16 07:00:09 18° 52° (NE) 07:01:57 437.345 MHz
Hamsat 01 Nov 07:24:13 07:28:24 64° 286° (WNW) 07:32:36 145.90 MHz
SO-67 01 Nov 07:45:30 07:48:30 27° 96° (E) 07:51:29 435.3500 MHz FM
RS-15 01 Nov 07:52:17 08:02:23 42° 251° (WSW) 08:12:54 29.354 - 29.394 USB, Beacon 29.352 USB
Saudisat 1A 01 Nov 08:01:27 08:04:51 22° 323° (NW) 08:08:17 436.775 MHz
STRAND 1 01 Nov 08:18:05 08:22:06 23° 267° (W) 08:26:09 ?
JAS-2 01 Nov 08:29:09 08:35:34 29° 302° (WNW) 08:41:54 435.800 - 435.900 CW/SSB, 435.910 FM
HO-68 01 Nov 08:31:19 08:34:11 13° 85° (E) 08:37:02 435.675 MHz FM
MaSat-1 01 Nov 08:33:57 08:35:20 14° 252° (WSW) 08:36:41 437.345 MHz
AO-7 01 Nov 08:42:54 08:47:04 15° 321° (NW) 08:51:15 29.400 - 29.500 MHz
SO-67 01 Nov 09:18:44 09:21:19 20° 293° (WNW) 09:23:53 435.3500 MHz FM
Sapphire 01 Nov 09:58:00 10:02:06 21° 37° (NE) 10:06:11 437.095 MHz 1200 baud AX-25 AFSK
KITSAT 1 01 Nov 10:08:10 10:14:33 27° 105° (ESE) 10:20:57 435.175 FM
Oscar 11 01 Nov 10:08:52 10:12:16 22° 93° (E) 10:15:38 145.825 FM, Beacon 2401.500 USB
HO-68 01 Nov 10:15:59 10:23:12 69° 104° (ESE) 10:30:21 435.675 MHz FM
PCSat 01 Nov 10:19:21 10:24:04 29° 43° (NE) 10:28:45 145.825 MHz
SO-50 01 Nov 10:23:57 10:26:19 14° 109° (ESE) 10:28:43 436.795 FM
FUNcube-1 01 Nov 10:28:29 10:30:54 15° 90° (E) 10:33:18 145.950 - 145.970 MHz USB
ISS 01 Nov 10:54:08 10:57:24 61° 148° (SSE) 11:00:42 145.800 FM
UKube-1 01 Nov 11:10:02 11:14:26 87° 285° (WNW) 11:18:48 145.840 MHz, 145.915 MHz
ZACube-1 01 Nov 11:20:49 11:24:58 53° 100° (E) 11:29:01 437.345 MHz
